Regional Weather Roundup
Issued by NWS

Home | Current Version | Previous Version | Graphics & Text | Print | Product List | Glossary Off
Versions: 1 2 3 4 5 6 7 8 9 10 11 12 13 14 15 16 17 18 19 20 21 22 23 24 25 26 27 28 29 30 31 32 33 34 35 36 37 38 39 40 41 42 43 44 45 46 47 48 49 50

000
ASUS43 KMKX 240921
RWRWI

WISCONSIN REGIONAL WEATHER ROUNDUP
NATIONAL WEATHER SERVICE MILWAUKEE/SULLIVAN WI
400 AM CDT MON JUL 24 2017

NOTE: "FAIR" INDICATES FEW OR NO CLOUDS BELOW 12,000 FEET WITH NO
SIGNIFICANT WEATHER AND/OR OBSTRUCTIONS TO VISIBILITY.

WIZ001-002-006>008-014>016-023>028-241000-
NORTHWEST WISCONSIN

CITY           SKY/WX    TMP DP  RH WIND       PRES   REMARKS
SUPERIOR ARPT  NOT AVBL
ASHLAND        FOG       56  55  97 CALM      30.08R VSB 3/4
HAYWARD        FOG       52  51  97 N6        30.07R VSB 1/4
SIREN          CLOUDY    50  50  99 CALM      30.07R FOG
CUMBERLAND     CLEAR     52  52 100 CALM      30.07R FOG
RICE LAKE      FOG       53  52  97 CALM      30.07R VSB 3/4
CHETEK         CLEAR     56  55  97 CALM      30.06R
LADYSMITH      FOG       55  54  97 N5        30.07R VSB 3/4
EAU CLAIRE     CLEAR     55  54  96 N5        30.04R
MENOMONIE      CLEAR     56  55  97 N3        30.06R
NEW RICHMOND   CLEAR     54  53  99 CALM      30.06R FOG
OSCEOLA        FOG       55  55 100 CALM      30.08S VSB 1/2
$$

WIZ003>005-009-010-017-018-241000-
NORTH CENTRAL WISCONSIN

CITY           SKY/WX    TMP DP  RH WIND       PRES   REMARKS
MANITOWISH WTR CLOUDY    52  52 100 NE3       30.08R FOG
ARBOR VITAE    MOCLDY    55  53  96 CALM      30.06S
WOODRUFF       MOCLDY    55  53  96 CALM      30.06S
RHINELANDER    MOCLDY    52  52 100 NE6       30.06R
EAGLE RIVER    FOG       50  50 100 CALM      30.06S VSB 1/2
LAND O LAKES   FOG       51  51 100 CALM      30.09R VSB 1/4
PHILLIPS       CLOUDY    51  51 100 NE9       30.06R FOG
TOMAHAWK         N/A     51  50  97 CALM      30.06R FOG
MEDFORD        CLEAR     51  50  97 CALM      30.04R
MERRILL        NOT AVBL
$$

WIZ029-030-035-036-043>047-241000-
CENTRAL WISCONSIN

CITY           SKY/WX    TMP DP  RH WIND       PRES   REMARKS
WAUSAU         CLOUDY    56  53  90 NE6       30.04R
MOSINEE        CLOUDY    55  54  94 NE8       30.05S
MARSHFIELD     CLEAR     56  52  86 NE6       30.03R
STEVENS POINT  CLOUDY    56  53  88 NE9       30.04R
WAUPACA        CLOUDY    63  56  78 N6        30.02R
WAUTOMA        CLOUDY    60  55  83 N6        30.02R
WISC RAPIDS    CLOUDY    60  54  80 E6        30.04R
CAMP DOUGLAS   CLOUDY    59  55  88 E5        30.03R
$$

WIZ011>013-019>022-031-037>040-048>050-241000-
NORTHEAST WISCONSIN

CITY           SKY/WX    TMP DP  RH WIND       PRES   REMARKS
ANTIGO         CLOUDY    54  53  97 NE6       30.06R
SHAWANO        CLOUDY    61  55  80 N7        30.03R
OCONTO         CLOUDY    59  55  85 N6        30.01R
STURGEON BAY     N/A     61  55  81 NE13      30.01R
GREEN BAY      CLOUDY    61  58  90 N9        30.00R
MANITOWOC      CLOUDY    62  56  80 N8        29.99R
APPLETON       CLOUDY    59  54  82 N8        30.00R
CLINTONVILLE   CLOUDY    61  54  77 N6        30.03R
OSHKOSH        CLOUDY    61  56  83 N9        30.00R
$$

WIZ032>034-041-042-053>061-241000-
SOUTHWEST WISCONSIN

CITY           SKY/WX    TMP DP  RH WIND       PRES   REMARKS
LA CROSSE      CLEAR     64  58  80 N5        30.01R
SPARTA         CLEAR     53  52  98 CALM      30.04R
VIROQUA        CLEAR     58  58 100 CALM      30.02S
BOSCOBEL       CLEAR     62  59  90 E5        30.00R
PRAIRIE DU CHI CLEAR     63  57  83 NW3       29.99R
PLATTEVILLE    CLEAR     62  61  98 NE8       29.99R
$$

WIZ056-057-062-063-064-067-068-241000-
SOUTH CENTRAL WISCONSIN

CITY           SKY/WX    TMP DP  RH WIND       PRES   REMARKS
REEDSBURG      CLOUDY    61  56  85 NE5       30.01R
BARABOO/DELLS  CLOUDY    61  54  77 NE6       30.02R
LONE ROCK      CLEAR     61  56  83 NE5       30.00R
MINERAL POINT  CLEAR     61  59  94 N5        29.99R
MADISON        CLOUDY    60  57  89 NW5       29.98R
MIDDLETON      PTCLDY    59  59  99 CALM      30.00R
WATERTOWN      CLOUDY    63  58  85 N5        29.97S
MONROE         CLEAR     61  59  94 NE7       29.98R
JANESVILLE     PTCLDY    63  57  82 NE8       29.96R
$$

WIZ051-052-058>065-066-070>072-241000-
SOUTHEAST WISCONSIN

CITY           SKY/WX    TMP DP  RH WIND       PRES   REMARKS
MILWAUKEE      CLOUDY    65  60  84 N9        29.95S
WAUKESHA       MOCLDY    59  55  88 N3        29.98R
MILWAUKEE/TIMM CLOUDY    61  55  82 N7        29.98R
RACINE         MOCLDY    65  61  87 N13       29.97R
KENOSHA        MOCLDY    63  59  87 N6        29.96R
FOND DU LAC    CLOUDY    64  56  75 N15       29.99R
SHEBOYGAN      CLOUDY    62  59  90 N9        29.97R
WEST BEND      CLOUDY    61  59  94 N5        29.98R
JUNEAU         CLOUDY    63  56  79 CALM      30.00R
$$

LSZ147-162-241000-
LAKE SUPERIOR

STATION/POSITION TIME  TEMP    WIND        PRES    WAVE
                       AIR SEA DIR/SP/G            HT/PER
                 (UTC) (F)     (DEG/KT/KT) (MB)    (FT/S)
W MID LAKE BUOY  0850   49 48  240/  6/  6 1018.2R   1
DEVILS ISLAND    0900   54     210/  4/  5 1018.4R
SAXON HARBOR     0830   56     150/  3/  4 1017.9R
$$

LMZ867-665-643>646-241000-
LAKE MICHIGAN

STATION/POSITION TIME  TEMP    WIND        PRES    WAVE
                       AIR SEA DIR/SP/G            HT/PER
                 (UTC) (F)     (DEG/KT/KT) (MB)    (FT/S)
CHAMBERS ISLAND  0840   62      10/ 13/ 15 1015.6R
S GREEN BAY BUOY 0900   63 72  360/ 16/ 19 1015.4
N MID LAKE BUOY  0850   62 66   50/ 14/ 16 1015.6R   4/ 5
NORTHPORT PIER   0840   61     360/  9/ 10 1015.9R
KEWAUNEE LAKESHO 0854   62     360/  6/ 10 1014.6R
SHEBOYGAN LAKESH 0900   64      10/ 22/ 25 1014.3R
PORT WASHINGTON  0840   64     360/  5/  9 1015.2R
ATWATER BUOY     0839   65 67   10/ 16/ 19 1014.2R
MILWAUKEE LAKESH 0900   65     360/ 10/ 13   N/A
S MID LAKE BUOY  0850   66 70  360/ 16/ 19 1012.9R   5/ 6
KENOSHA   LAKESH 0900   66     350/ 11/ 16 1013.9
$$

TC  - TEMPERATURE IN CELSIUS
VSB - VISIBILITY IN STATUTE MILES
WCI - WIND CHILL INDEX
HX  - HEAT INDEX





USA.gov is the U.S. government's official web portal to all federal, state and local government web resources and services.